Weather History for Jackson Hawkins Field, MS

Change the Weather History Date:

Tuesday, December 31, 2013

  Actual Average (KJAN) Record (KJAN)
Temperature  
Mean Temperature 40 °F 46 °F  
Max Temperature 45 °F 56 °F 80 °F (1951)
Min Temperature 34 °F 36 °F 10 °F (1983)
Degree Days  
Heating Degree Days 26 19  
Month to date heating degree days 540  
Since 1 July heating degree days 950  
Cooling Degree Days 0 0  
Month to date cooling degree days 8  
Year to date cooling degree days 2261  
Moisture  
Dew Point 31 °F    
Average Humidity 73    
Maximum Humidity 87    
Minimum Humidity 52    
Precipitation  
Precipitation 0.00 in 0.14 in 2.58 in (2010)
Month to date precipitation 5.15  
Year to date precipitation 54.14  
Sea Level Pressure  
Sea Level Pressure 30.38 in    
Wind  
Wind Speed 4 mph (NNE)    
Max Wind Speed 7 mph    
Max Gust Speed -    
Visibility 10 miles    
Events      
T = Trace of Precipitation, MM = Missing Value Source: NWS Daily Summary

Daily Weather History Graph

Daily Weather History Graph

Search for Another Location

Airport:

Trip Planner

Search our weather history database for the weather conditions in past years. The results will help you decide how hot, cold, wet, or windy it might be!

Date:

Astronomy

Dec. 31, 2013 Rise Set
Actual Time 7:02 AM CST 5:06 PM CST
Civil Twilight 6:35 AM CST 5:33 PM CST
Nautical Twilight 6:04 AM CST 6:03 PM CST
Astronomical Twilight 5:34 AM CST 6:33 PM CST
Moon 5:57 AM CST (12/31) 4:39 PM CST (12/31)
Length of Visible Light 10h 58m
Length of Day
10h 04m
Waning Crescent, 1% of the Moon is Illuminated
Dec 31
Waning Crescent
Jan 1
New
Jan 7
First Quarter
Jan 15
Full
Jan 23
Last Quarter

Hourly Weather History & Observations

Time (CST) Temp. Windchill Dew Point Humidity Pressure Visibility Wind Dir Wind Speed Gust Speed Precip Events Conditions
12:19 AM 37.4 °F 33.8 °F 32.0 °F 81% 30.38 in 9.0 mi WNW 4.6 mph - N/A   Overcast
12:53 AM 36.0 °F 32.1 °F 32.0 °F 86% 30.37 in 9.0 mi NW 4.6 mph - N/A   Overcast
1:12 AM 35.6 °F 32.8 °F 32.0 °F 87% 30.38 in 9.0 mi NW 3.5 mph - N/A   Overcast
1:53 AM 37.0 °F - 32.0 °F 82% 30.37 in 9.0 mi Calm Calm - N/A   Overcast
2:53 AM 35.1 °F 32.2 °F 30.9 °F 85% 30.37 in 9.0 mi NNW 3.5 mph - N/A   Mostly Cloudy
3:41 AM 35.6 °F 29.9 °F 30.2 °F 81% 30.38 in 10.0 mi NNW 6.9 mph - N/A   Overcast
3:53 AM 35.1 °F 31.0 °F 30.9 °F 85% 30.38 in 10.0 mi NNW 4.6 mph - N/A   Overcast
4:40 AM 35.6 °F 31.7 °F 30.2 °F 81% 30.39 in 9.0 mi North 4.6 mph - N/A   Mostly Cloudy
4:53 AM 35.1 °F 29.3 °F 30.0 °F 82% 30.38 in 9.0 mi North 6.9 mph - N/A   Scattered Clouds
5:53 AM 34.0 °F 31.0 °F 28.9 °F 82% 30.40 in 9.0 mi North 3.5 mph - N/A   Clear
6:53 AM 34.0 °F 29.8 °F 30.0 °F 85% 30.43 in 8.0 mi North 4.6 mph - N/A   Mostly Cloudy
7:53 AM 35.1 °F - 30.0 °F 82% 30.43 in 7.0 mi Calm Calm - N/A   Overcast
8:53 AM 36.0 °F 31.1 °F 30.0 °F 79% 30.45 in 9.0 mi NNE 5.8 mph - N/A   Scattered Clouds
9:53 AM 37.9 °F 32.7 °F 30.0 °F 73% 30.45 in 10.0 mi ENE 6.9 mph - N/A   Clear
10:53 AM 39.9 °F 37.8 °F 30.9 °F 70% 30.43 in 10.0 mi Variable 3.5 mph - N/A   Clear
11:53 AM 42.1 °F 37.7 °F 30.9 °F 65% 30.41 in 10.0 mi NNE 6.9 mph - N/A   Clear
12:53 PM 43.0 °F 40.3 °F 28.9 °F 58% 30.39 in 10.0 mi Variable 4.6 mph - N/A   Clear
1:53 PM 45.0 °F 42.6 °F 28.9 °F 53% 30.38 in 10.0 mi NE 4.6 mph - N/A   Clear
2:53 PM 45.0 °F 42.6 °F 28.0 °F 52% 30.37 in 10.0 mi ENE 4.6 mph - N/A   Clear
3:53 PM 45.0 °F - 28.0 °F 52% 30.36 in 10.0 mi Calm Calm - N/A   Clear
4:53 PM 43.0 °F - 28.9 °F 58% 30.37 in 10.0 mi Calm Calm - N/A   Clear
5:53 PM 42.1 °F - 30.9 °F 65% 30.37 in 10.0 mi Calm Calm - N/A   Clear
6:53 PM 42.1 °F - 30.9 °F 65% 30.36 in 10.0 mi Calm Calm - N/A   Clear
7:53 PM 41.0 °F - 32.0 °F 70% 30.36 in 10.0 mi Calm Calm - N/A   Clear
8:53 PM 41.0 °F 39.0 °F 30.9 °F 67% 30.36 in 10.0 mi ESE 3.5 mph - N/A   Clear
9:53 PM 41.0 °F 39.0 °F 32.0 °F 70% 30.35 in 10.0 mi ESE 3.5 mph - N/A   Clear
10:53 PM 41.0 °F 38.0 °F 32.0 °F 70% 30.33 in 9.0 mi ESE 4.6 mph - N/A   Clear
11:53 PM 41.0 °F 36.4 °F 32.0 °F 70% 30.30 in 10.0 mi ESE 6.9 mph - N/A   Clear